Temperature
30 31 31 31 31 31 32 31 31 31 31 31 31 30 30 29 28 28 27 26 25 25 24 23 22 22 21 21 20 20 20 19 19 19 19 19 18 18 18 18 18 18 18 18
30 30 31 32 31 31 31 31 31 31 31 30 31 30 31 30 29 28 27 27 26 25 25 23 22 22 21 21 20 20 20 20 19 19 19 19 19 18 18 18 18 18 18 18
30 31 31 31 31 31 31 31 31 31 31 30 30 30 30 30 29 28 28 27 27 26 25 24 23 22 22 21 21 20 20 20 20 19 19 19 19 18 18 18 18 18 18 18
31 31 31 31 31 31 31 32 31 31 31 31 31 30 31 31 30 29 28 28 27 27 25 24 23 23 22 22 21 21 21 20 20 20 19 19 19 19 18 18 18 18 18 18
31 31 31 30 31 31 31 31 31 31 31 31 31 31 31 31 30 30 29 28 27 27 26 25 24 23 23 22 21 21 21 21 20 20 19 19 19 19 19 18 18 18 18 18
31 31 31 31 31 31 31 31 31 31 31 30 31 30 31 31 31 31 30 28 27 26 26 25 24 23 22 22 21 21 21 21 20 20 20 19 19 19 19 18 18 18 18 18
30 31 31 31 31 31 31 31 30 30 30 30 31 30 31 31 31 30 30 28 27 26 26 25 24 23 22 22 21 21 21 21 20 20 20 20 19 19 19 19 18 18 18 18
29 30 31 31 31 31 31 31 30 29 29 30 30 30 31 31 30 29 28 28 27 26 26 25 24 23 23 22 21 21 21 21 21 20 20 20 20 19 19 19 18 18 18 18
30 30 31 31 31 31 31 31 32 31 30 30 31 31 31 30 30 29 28 28 27 26 25 25 24 23 23 22 21 21 21 21 21 20 20 20 20 19 19 18 18 18 18 17
30 29 30 30 30 30 31 31 31 30 29 29 30 30 31 30 30 29 29 28 27 26 25 25 24 23 23 22 21 21 21 21 21 20 20 20 19 19 19 18 18 18 17 17
30 29 30 30 29 30 30 30 30 30 30 29 29 30 31 30 30 29 29 27 26 26 25 24 24 23 22 22 21 21 20 20 20 20 20 20 19 19 18 18 18 18 17 17
29 30 29 30 30 30 30 30 30 29 29 29 29 30 31 30 30 29 28 26 25 25 24 24 23 22 22 22 21 21 20 20 20 20 20 19 19 19 18 18 18 18 17 17
28 28 28 28 29 29 29 30 30 30 30 29 29 30 30 29 29 28 27 26 24 24 23 23 22 22 21 21 21 20 20 20 20 19 19 19 19 19 18 18 18 17 17 17
27 28 28 28 29 29 29 29 29 30 30 29 29 30 30 29 28 27 26 25 24 23 23 22 22 21 21 20 20 20 20 20 20 19 19 19 19 18 18 18 18 17 17 17
28 28 28 28 29 29 29 29 29 29 29 29 30 30 30 29 28 27 26 25 24 23 22 22 21 21 20 20 20 19 20 19 19 19 19 18 18 18 18 18 17 17 17 17
27 27 27 27 28 28 28 29 29 29 29 29 29 29 30 29 27 26 25 24 23 23 22 22 21 20 20 20 19 19 19 19 19 19 19 18 18 18 18 18 17 17 17 16
26 26 26 27 28 27 27 28 29 29 29 29 29 29 29 28 27 26 25 24 23 23 22 21 21 20 20 19 19 19 19 19 19 18 18 18 18 18 18 17 17 17 17 16
24 25 26 26 26 25 28 29 29 28 29 29 29 28 28 27 25 24 24 23 23 22 22 21 21 20 20 19 19 19 18 18 18 18 18 18 18 17 17 17 17 17 16 16
25 24 25 26 26 26 27 27 28 27 28 28 28 28 26 25 25 24 23 22 22 22 21 21 21 20 20 19 19 18 18 18 18 18 17 17 17 17 17 17 16 16 16 16
24 24 24 25 24 25 27 27 26 27 26 27 27 27 26 25 26 25 23 22 22 21 21 20 20 20 19 19 18 18 18 18 18 18 17 17 17 17 17 17 16 16 16 16
23 23 23 24 24 26 26 26 25 25 26 25 25 25 25 25 25 23 22 21 21 20 20 20 20 19 19 19 18 18 18 18 18 17 17 17 17 17 17 16 16 16 16 15
23 24 23 24 24 25 25 25 25 24 24 24 24 23 23 23 22 22 21 21 20 20 19 19 19 19 18 18 18 17 17 17 17 17 17 17 17 17 16 16 16 15 15 15
23 23 24 24 24 23 23 23 23 22 22 22 22 22 22 22 21 21 20 20 19 19 19 18 18 18 18 17 17 17 17 17 17 17 16 16 16 16 16 15 15 15 15 15
22 21 22 22 23 22 21 21 21 21 21 21 21 21 21 21 20 20 19 19 19 18 18 18 18 17 17 17 17 17 17 17 17 16 16 16 16 16 15 15 15 15 15 14
21 21 21 21 22 21 21 20 20 20 20 20 20 20 20 20 19 19 19 18 18 18 18 17 17 17 17 17 16 16 16 16 16 16 16 16 16 15 15 15 14 14 14 14
20 20 20 21 21 21 20 19 19 19 19 19 19 19 19 19 19 18 18 17 17 17 17 17 17 17 17 16 16 16 16 16 16 16 16 16 16 15 15 15 14 14 14 14
Wind_Speed
8 9 9 6 6 6 6 5 4 2 1 5 6 5 7 10 12 12 13 13 14 13 13 12 12 11 11 10 10 10 9 8 7 6 5 4 3 3 3 2 2 2 1 1
11 12 9 6 6 7 7 7 5 2 1 4 4 6 7 10 12 13 13 14 14 14 13 13 13 12 12 11 11 10 10 9 8 6 4 3 3 3 3 2 2 2 1 1
15 8 7 8 9 9 9 7 6 4 3 5 5 7 8 9 10 11 12 13 14 15 15 15 14 14 13 12 12 10 10 10 9 8 6 4 4 3 3 3 3 2 2 2
13 9 9 10 10 10 9 5 6 7 8 5 6 6 6 8 10 11 12 13 14 15 15 15 15 15 14 13 12 12 11 11 9 9 7 7 5 4 4 3 2 2 2 2
11 10 11 12 10 9 7 5 7 8 9 9 8 8 5 7 9 10 11 12 12 14 15 15 15 14 13 13 13 12 12 11 10 9 8 7 6 5 4 3 3 3 3 3
11 8 9 10 8 8 6 7 8 9 10 11 8 9 7 6 7 8 9 9 11 12 14 14 14 13 13 13 13 12 12 11 11 10 9 8 7 6 5 4 4 4 3 3
14 12 10 8 10 10 11 10 8 8 9 8 5 8 6 2 3 4 6 7 9 11 12 13 14 14 13 13 13 13 13 12 11 11 10 9 8 7 6 5 4 4 3 3
15 14 13 10 11 10 12 12 10 8 8 7 6 8 3 1 2 3 5 7 8 9 11 13 13 13 13 14 14 13 13 12 11 11 9 9 8 7 5 5 4 4 3 2
11 11 9 9 9 11 12 12 10 11 11 10 7 6 4 3 3 3 4 6 7 8 8 10 12 13 13 13 14 13 13 12 12 11 10 9 8 7 5 5 5 4 3 3
10 9 9 9 9 9 11 10 10 11 10 11 9 9 5 5 5 5 5 6 7 7 8 8 9 11 12 12 12 12 12 12 11 11 10 8 8 7 6 6 5 5 4 3
12 12 10 10 12 13 11 12 11 11 11 11 10 6 1 3 4 5 5 5 6 6 7 7 8 9 10 11 12 12 12 11 11 10 10 9 8 8 7 6 6 6 5 4
10 11 12 12 9 8 12 14 14 13 11 11 12 7 3 2 2 4 4 5 5 5 6 7 8 9 9 10 11 11 11 11 10 10 9 9 9 8 8 7 7 6 6 5
6 9 11 12 11 10 11 13 14 14 12 12 13 8 4 3 2 2 4 5 5 6 6 7 8 8 8 8 9 10 10 10 10 10 9 9 8 8 8 7 7 6 6 5
5 10 12 13 7 8 11 13 14 15 14 14 14 11 5 4 4 3 4 5 6 6 7 7 7 8 7 7 8 8 9 9 9 9 9 9 8 8 7 7 7 6 6 6
6 10 11 11 9 9 11 12 14 16 16 16 13 12 9 6 5 5 5 6 7 7 7 7 7 7 7 7 7 8 8 8 8 8 8 8 7 7 7 6 6 6 6 6
6 8 10 12 12 12 14 14 15 16 16 16 15 12 6 4 4 5 6 7 8 7 7 6 6 7 7 7 7 8 8 7 7 8 8 7 7 6 6 6 6 6 6 6
7 9 11 13 12 13 17 16 15 14 14 15 15 10 5 5 5 6 6 7 8 8 7 7 6 6 6 7 8 8 7 7 7 7 7 7 7 6 6 6 6 6 6 6
8 9 9 12 11 16 11 8 11 13 13 12 11 8 7 6 5 5 5 6 7 7 7 6 6 6 6 7 7 7 7 7 7 7 6 6 6 6 5 5 5 6 5 6
11 10 10 12 15 15 10 7 9 12 12 10 10 8 6 5 5 5 5 5 6 6 6 5 5 5 5 6 7 8 8 7 7 6 6 6 6 5 5 5 5 5 4 5
10 11 12 13 15 16 9 4 5 9 12 6 7 7 7 7 8 6 6 6 6 5 5 5 5 5 6 6 7 8 8 7 7 6 6 6 6 6 5 5 4 4 4 4
11 11 15 16 15 12 4 2 5 10 6 2 4 5 6 8 6 1 4 5 6 6 5 6 6 5 5 6 7 7 7 6 6 5 5 5 6 6 5 4 4 4 4 3
11 12 14 14 16 12 1 4 6 4 4 2 3 3 4 4 2 2 3 4 5 6 6 6 5 5 5 6 6 6 5 4 4 5 5 5 5 5 4 4 4 4 4 4
10 9 8 9 8 2 2 4 3 4 4 4 4 3 3 3 3 3 3 4 5 5 6 6 6 5 4 4 5 5 5 4 4 4 5 5 5 4 4 4 4 4 4 4
8 5 8 9 7 5 5 5 6 6 6 5 5 4 4 4 3 3 3 4 4 5 6 6 6 5 4 4 4 4 4 5 5 5 4 4 5 4 4 4 4 4 4 4
8 7 9 11 9 7 7 7 6 6 6 6 4 4 5 5 4 4 4 4 4 5 5 5 6 6 5 5 4 4 5 5 5 4 4 5 5 5 4 4 2 3 3 2
9 9 10 10 7 8 7 6 6 6 6 6 5 4 5 5 4 5 5 4 5 5 5 5 6 6 5 5 5 5 5 5 5 4 4 4 4 4 4 4 3 2 1 2
Wind_Direction
206 224 225 228 241 268 276 273 276 286 208 234 236 229 201 191 200 201 198 196 197 199 192 188 190 189 187 185 185 185 187 178 184 186 189 187 186 187 183 165 144 169 183 175
215 225 231 238 236 242 251 259 258 234 187 250 252 245 219 205 207 208 205 201 201 198 192 190 191 192 191 185 184 184 185 182 189 183 188 189 181 186 177 170 162 187 183 221
227 225 214 226 227 234 242 255 268 263 228 221 248 238 213 208 210 213 213 210 206 202 196 191 194 194 191 188 188 187 186 185 188 183 186 178 178 193 189 191 185 186 208 217
232 227 222 228 230 239 242 250 261 253 250 246 244 266 218 205 205 211 212 209 210 203 199 195 195 195 194 191 187 185 185 186 186 189 194 195 199 201 194 199 185 196 202 208
220 219 224 230 231 241 254 256 250 251 257 260 240 261 234 201 215 215 210 210 209 203 199 198 197 195 194 189 186 183 183 185 186 192 193 202 207 203 189 192 187 212 201 207
234 227 236 236 232 232 228 231 230 239 249 251 246 259 252 219 226 217 208 208 207 201 198 197 194 191 193 187 185 182 180 185 187 193 195 200 203 205 200 201 196 212 202 202
222 222 220 224 225 210 220 236 239 237 237 247 231 252 259 246 238 231 219 207 204 199 197 194 193 190 190 188 185 181 179 183 188 192 195 197 202 205 205 209 204 222 213 204
218 218 209 214 226 224 222 239 248 259 263 260 221 248 251 175 217 226 216 199 193 196 196 194 192 190 188 186 185 182 181 184 187 190 194 198 202 210 208 208 212 214 223 212
224 221 198 210 222 233 226 235 252 264 269 269 250 246 227 187 195 195 193 187 186 188 190 192 188 187 186 185 185 185 184 186 188 190 192 196 203 211 209 204 212 210 209 205
238 234 206 196 208 222 242 238 239 248 258 262 255 246 244 202 208 199 190 184 183 182 185 189 186 186 186 186 182 183 185 187 187 188 194 195 198 203 208 214 212 214 211 210
240 236 221 207 220 221 213 225 235 246 253 262 265 257 166 209 211 209 196 186 184 184 184 183 179 178 179 178 177 180 183 185 187 191 194 197 197 201 206 209 210 212 212 206
225 240 237 223 219 242 232 233 232 238 243 251 267 265 115 178 210 211 203 183 179 182 179 173 168 166 170 172 174 177 181 184 187 188 191 196 198 200 206 208 206 206 209 211
209 230 231 223 209 209 226 230 235 243 247 249 255 251 142 156 190 200 198 179 169 171 169 166 162 165 168 170 173 174 180 184 185 185 190 193 197 197 203 207 206 205 207 212
244 239 241 244 239 219 220 227 232 238 243 246 250 260 231 213 208 200 189 177 168 169 170 169 166 167 167 170 172 177 182 182 183 184 190 193 196 197 201 204 208 206 208 213
242 241 242 255 260 251 241 235 232 237 248 256 259 259 256 236 216 200 187 178 176 175 174 171 172 168 170 170 173 178 182 182 182 185 191 194 195 197 201 203 209 208 210 214
243 251 248 247 246 249 249 243 238 239 245 252 260 262 262 238 213 198 193 188 185 185 183 176 173 172 174 174 176 175 179 180 181 188 195 193 195 198 202 206 208 208 209 211
237 240 246 249 243 250 244 238 239 240 243 249 252 256 237 229 215 207 203 198 195 191 186 180 179 179 177 177 176 176 174 174 179 186 194 195 198 201 205 210 207 208 210 209
242 241 242 249 245 246 248 241 242 245 245 246 254 255 240 239 227 213 205 203 200 195 190 185 181 181 179 175 173 173 170 172 176 183 192 194 198 202 203 205 208 212 214 211
234 235 241 244 242 244 242 236 238 242 246 247 248 243 234 220 213 208 205 204 201 196 189 186 186 179 171 172 169 169 172 175 181 187 195 196 196 197 198 200 202 207 210 209
217 223 237 238 245 246 240 222 240 248 242 239 244 235 221 205 227 212 193 203 199 192 184 179 178 172 164 163 167 173 176 180 187 193 198 198 197 200 202 199 200 203 206 208
208 216 229 239 243 245 259 228 212 232 246 253 246 239 223 218 247 213 183 190 184 179 174 169 169 168 161 163 167 179 183 188 188 190 193 192 192 196 194 192 196 197 204 207
228 227 226 235 242 241 210 210 234 287 344 319 280 256 236 232 224 182 174 174 172 173 170 167 163 156 154 164 172 182 187 181 178 184 187 184 184 194 184 185 190 195 202 205
238 250 248 241 248 290 242 248 282 302 300 297 289 277 244 228 219 198 189 181 175 173 167 167 162 155 156 167 176 183 178 174 178 186 189 185 184 186 186 187 191 198 206 217
231 254 255 252 245 254 260 274 280 289 286 287 283 270 247 241 233 213 197 190 183 176 171 171 168 167 166 172 181 179 168 172 177 188 187 180 181 183 181 191 197 202 207 218
259 246 244 247 255 261 254 271 283 288 286 283 275 256 242 237 231 212 196 193 192 187 183 183 180 176 174 175 178 175 164 167 174 183 189 194 193 187 186 191 200 210 203 218
244 246 248 254 255 259 267 277 278 274 273 271 264 251 242 234 224 210 200 196 198 196 191 190 188 183 177 178 179 177 170 172 178 186 194 202 198 188 190 186 180 95 148 137
Height
1504 1502 1500 1499 1498 1499 1498 1500 1502 1500 1498 1501 1502 1503 1504 1509 1512 1514 1517 1520 1523 1526 1529 1531 1534 1535 1537 1539 1540 1542 1544 1545 1547 1549 1550 1551 1552 1553 1553 1554 1553 1553 1554 1554
1501 1500 1496 1496 1497 1499 1499 1501 1500 1498 1498 1501 1500 1501 1500 1504 1507 1510 1513 1516 1519 1522 1526 1529 1531 1533 1535 1537 1539 1540 1542 1544 1546 1547 1549 1550 1551 1552 1553 1553 1552 1553 1553 1553
1497 1494 1495 1497 1498 1500 1498 1499 1499 1500 1499 1499 1501 1502 1499 1499 1504 1507 1509 1512 1515 1518 1521 1525 1528 1530 1533 1535 1536 1539 1540 1542 1544 1546 1548 1549 1550 1551 1552 1552 1552 1552 1552 1552
1492 1491 1494 1496 1496 1496 1499 1493 1495 1498 1500 1499 1500 1506 1495 1493 1498 1502 1505 1507 1510 1514 1518 1521 1525 1528 1530 1532 1534 1536 1538 1540 1542 1544 1546 1547 1549 1550 1551 1551 1551 1551 1551 1551
1490 1490 1492 1495 1493 1493 1493 1492 1494 1495 1497 1499 1497 1502 1493 1490 1495 1496 1499 1502 1506 1509 1513 1517 1521 1524 1527 1530 1532 1534 1536 1538 1540 1542 1544 1545 1547 1548 1549 1549 1549 1550 1550 1550
1486 1488 1489 1489 1490 1491 1492 1494 1494 1493 1494 1506 1497 1501 1497 1486 1488 1489 1494 1499 1502 1506 1510 1514 1518 1521 1524 1527 1529 1531 1533 1535 1537 1539 1541 1543 1544 1546 1547 1547 1548 1548 1549 1549
1488 1486 1486 1488 1489 1490 1491 1496 1505 1508 1506 1503 1490 1496 1491 1482 1485 1488 1492 1496 1500 1503 1506 1510 1513 1517 1520 1523 1525 1528 1530 1532 1535 1537 1539 1540 1542 1543 1544 1545 1546 1546 1547 1547
1490 1490 1483 1483 1485 1487 1487 1490 1505 1515 1509 1497 1492 1494 1483 1482 1486 1489 1491 1494 1497 1500 1503 1506 1509 1513 1516 1519 1522 1524 1527 1529 1532 1534 1536 1538 1539 1541 1542 1543 1544 1544 1545 1545
1481 1485 1478 1480 1482 1482 1486 1486 1482 1491 1494 1499 1490 1485 1480 1481 1485 1488 1490 1492 1495 1498 1500 1503 1506 1509 1512 1515 1518 1521 1524 1526 1529 1531 1533 1535 1536 1538 1540 1540 1541 1542 1543 1543
1474 1484 1476 1479 1482 1482 1480 1480 1485 1492 1507 1508 1495 1488 1483 1481 1483 1485 1488 1490 1493 1496 1499 1501 1503 1506 1509 1512 1515 1518 1521 1523 1525 1528 1530 1532 1534 1535 1536 1538 1539 1539 1540 1541
1473 1481 1479 1478 1481 1479 1483 1484 1484 1485 1488 1501 1503 1489 1472 1477 1480 1482 1485 1489 1492 1495 1497 1499 1501 1504 1507 1510 1512 1515 1518 1520 1522 1525 1527 1529 1530 1532 1534 1535 1535 1536 1537 1538
1475 1476 1478 1476 1473 1474 1475 1477 1480 1490 1493 1490 1492 1486 1471 1475 1478 1481 1484 1488 1491 1493 1495 1497 1500 1502 1505 1507 1510 1512 1515 1517 1519 1522 1524 1526 1528 1529 1531 1532 1532 1533 1534 1535
1475 1477 1487 1484 1481 1478 1476 1475 1474 1475 1480 1485 1490 1484 1472 1476 1479 1482 1484 1487 1490 1493 1495 1497 1499 1501 1503 1505 1508 1510 1512 1515 1517 1519 1521 1523 1524 1526 1527 1529 1530 1530 1531 1532
1478 1473 1477 1482 1476 1471 1475 1475 1474 1476 1478 1481 1479 1475 1472 1474 1478 1481 1484 1487 1489 1492 1494 1496 1497 1499 1501 1503 1505 1508 1510 1513 1515 1517 1519 1520 1521 1523 1524 1525 1526 1527 1528 1529
1475 1474 1472 1469 1467 1468 1470 1471 1472 1475 1472 1474 1471 1470 1469 1471 1475 1480 1483 1486 1488 1491 1492 1494 1496 1497 1499 1501 1503 1505 1508 1510 1512 1514 1516 1517 1519 1520 1521 1522 1523 1524 1524 1526
1475 1475 1473 1473 1468 1468 1469 1467 1468 1469 1469 1469 1468 1468 1465 1470 1475 1479 1482 1484 1486 1488 1490 1492 1494 1495 1496 1498 1500 1502 1504 1507 1509 1510 1513 1515 1516 1517 1518 1519 1520 1521 1521 1522
1473 1475 1478 1474 1468 1470 1472 1464 1464 1465 1464 1465 1468 1466 1467 1471 1475 1477 1480 1482 1484 1487 1489 1490 1492 1493 1494 1496 1498 1500 1502 1504 1506 1508 1510 1512 1513 1514 1515 1516 1517 1517 1518 1519
1477 1476 1473 1473 1476 1485 1463 1456 1458 1461 1460 1461 1462 1464 1467 1471 1474 1477 1479 1480 1482 1484 1486 1488 1490 1492 1493 1494 1496 1498 1500 1502 1504 1505 1507 1509 1510 1511 1512 1513 1513 1514 1514 1515
1473 1475 1474 1472 1473 1468 1460 1458 1459 1461 1461 1459 1461 1464 1468 1471 1473 1475 1477 1479 1481 1482 1484 1486 1487 1489 1491 1492 1494 1496 1498 1500 1502 1503 1505 1507 1508 1509 1509 1510 1510 1511 1511 1512
1470 1472 1473 1470 1475 1473 1460 1456 1459 1461 1463 1460 1461 1463 1466 1469 1469 1470 1475 1477 1478 1480 1482 1484 1485 1487 1489 1490 1492 1494 1496 1498 1499 1501 1502 1504 1505 1506 1507 1507 1508 1509 1509 1509
1469 1471 1471 1468 1468 1458 1456 1457 1460 1468 1464 1461 1462 1464 1465 1466 1468 1471 1473 1474 1476 1478 1480 1482 1483 1485 1487 1488 1490 1492 1494 1495 1497 1499 1500 1501 1502 1503 1504 1505 1505 1506 1506 1507
1463 1463 1465 1464 1467 1463 1458 1459 1460 1462 1462 1463 1463 1464 1466 1467 1469 1470 1471 1473 1474 1477 1478 1480 1481 1483 1484 1486 1488 1490 1492 1494 1495 1496 1498 1499 1500 1501 1502 1502 1502 1503 1503 1504
1460 1458 1455 1458 1459 1459 1460 1461 1462 1463 1464 1464 1464 1465 1466 1467 1468 1469 1470 1472 1473 1475 1476 1478 1479 1481 1482 1484 1486 1488 1490 1491 1493 1495 1496 1496 1497 1498 1499 1499 1499 1500 1500 1501
1459 1461 1459 1458 1456 1460 1461 1461 1462 1463 1463 1463 1464 1464 1465 1465 1466 1467 1469 1470 1472 1473 1474 1476 1478 1479 1480 1482 1484 1486 1487 1489 1491 1492 1493 1494 1495 1496 1496 1496 1497 1498 1498 1498
1459 1460 1458 1458 1458 1460 1460 1461 1462 1462 1462 1462 1462 1462 1463 1464 1464 1466 1467 1468 1470 1471 1473 1474 1475 1477 1479 1480 1482 1483 1484 1486 1488 1489 1490 1492 1493 1493 1493 1493 1494 1495 1495 1495
1459 1459 1458 1456 1457 1458 1459 1460 1460 1460 1460 1460 1460 1460 1461 1462 1463 1464 1465 1466 1467 1469 1470 1472 1473 1475 1476 1478 1479 1480 1481 1483 1485 1487 1488 1490 1490 1491 1491 1491 1492 1491 1492 1492